| time (UTC) | temp C | wind direction | speed KPH | gust KPH | rain 1hr cm | rain 24hr cm | rain mn cm | humidity % | barometer mb |
| 20260504024419 | 18 | 256 | 4.8 | 12.9 | 0.00 | 0.00 | 0.00 | 69 | 1011.0 |
| 20260504023959 | 18 | 200 | 6.4 | 16.1 | 0.00 | 0.00 | 0.00 | 69 | 1010.9 |
| 20260504023545 | 18 | 253 | 9.7 | 14.5 | 0.00 | 0.00 | 0.00 | 69 | 1011.0 |
| 20260504023135 | 18 | 347 | 6.4 | 8.0 | 0.00 | 0.00 | 0.00 | 69 | 1011.1 |
| 20260504022719 | 18 | 305 | 3.2 | 9.7 | 0.00 | 0.00 | 0.00 | 69 | 1011.0 |
| 20260504022305 | 18 | 324 | 3.2 | 8.0 | 0.00 | 0.00 | 0.00 | 69 | 1011.0 |
| 20260504021819 | 18 | 284 | 4.8 | 9.7 | 0.00 | 0.00 | 0.00 | 70 | 1011.1 |
| 20260504021350 | 18 | 226 | 4.8 | 8.0 | 0.00 | 0.00 | 0.00 | 70 | 1011.1 |
| 20260504020930 | 18 | 282 | 12.9 | 14.5 | 0.00 | 0.00 | 0.00 | 69 | 1011.3 |
| 20260504020430 | 18 | 199 | 3.2 | 9.7 | 0.00 | 0.00 | 0.00 | 70 | 1011.1 |
| 20260504020015 | 18 | 58 | 4.8 | 9.7 | 0.00 | 0.00 | 0.00 | 70 | 1011.1 |
| 20260504015545 | 18 | 189 | 6.4 | 9.7 | 0.00 | 0.00 | 0.00 | 70 | 1011.2 |
| 20260504015119 | 18 | 219 | 9.7 | 17.7 | 0.00 | 0.00 | 0.00 | 69 | 1011.0 |
| 20260504014645 | 18 | 195 | 4.8 | 8.0 | 0.00 | 0.00 | 0.00 | 70 | 1011.3 |
| 20260504014149 | 18 | 200 | 1.6 | 6.4 | 0.00 | 0.00 | 0.00 | 70 | 1011.1 |
| 20260504013711 | 18 | 275 | 8.0 | 12.9 | 0.00 | 0.00 | 0.00 | 69 | 1011.1 |
| 20260504013215 | 18 | 336 | 8.0 | 12.9 | 0.00 | 0.00 | 0.00 | 70 | 1011.3 |
| 20260504012715 | 18 | 304 | 6.4 | 9.7 | 0.00 | 0.00 | 0.00 | 70 | 1011.4 |
| 20260504012250 | 18 | 295 | 6.4 | 17.7 | 0.00 | 0.00 | 0.00 | 70 | 1011.3 |
| 20260504011814 | 18 | 313 | 4.8 | 9.7 | 0.00 | 0.00 | 0.00 | 71 | 1011.1 |
| 20260504011409 | 18 | 11 | 3.2 | 4.8 | 0.00 | 0.00 | 0.00 | 73 | 1011.2 |
| 20260504011010 | 18 | 99 | 0.0 | 0.0 | 0.00 | 0.00 | 0.00 | 75 | 1011.3 |
| 20260504010559 | 18 | 85 | 0.0 | 3.2 | 0.00 | 0.00 | 0.00 | 75 | 1011.3 |
| 20260504010140 | 18 | 107 | 3.2 | 4.8 | 0.00 | 0.00 | 0.00 | 75 | 1011.3 |
| 20260504010023 | 18 | 108 | 3.2 | 4.8 | 0.00 | 0.00 | 0.00 | 77 | 1011.3 |
| 20260504005610 | 18 | 93 | 1.6 | 3.2 | 0.00 | 0.00 | 0.00 | 78 | 1011.3 |
| 20260504005208 | 18 | 72 | 0.0 | 0.0 | 0.00 | 0.00 | 0.00 | 78 | 1011.4 |
| 20260504004713 | 18 | 97 | 0.0 | 1.6 | 0.00 | 0.00 | 0.00 | 76 | 1011.6 |
| 20260504004238 | 18 | 105 | 3.2 | 4.8 | 0.00 | 0.00 | 0.00 | 78 | 1011.3 |
| 20260504003748 | 18 | 109 | 0.0 | 1.6 | 0.00 | 0.00 | 0.00 | 75 | 1011.4 |
| 20260504003348 | 18 | 100 | 0.0 | 0.0 | 0.00 | 0.00 | 0.00 | 73 | 1011.3 |
| 20260504002938 | 18 | 93 | 0.0 | 0.0 | 0.00 | 0.00 | 0.00 | 73 | 1011.5 |
| 20260504002458 | 18 | 100 | 0.0 | 1.6 | 0.00 | 0.00 | 0.00 | 73 | 1011.6 |
| 20260504002003 | 18 | 144 | 3.2 | 4.8 | 0.00 | 0.00 | 0.00 | 73 | 1011.6 |
| 20260504001552 | 17 | 34 | 3.2 | 4.8 | 0.00 | 0.00 | 0.00 | 75 | 1011.5 |
| 20260504001108 | 17 | 86 | 0.0 | 0.0 | 0.00 | 0.00 | 0.00 | 78 | 1011.5 |
| 20260504000613 | 17 | 112 | 0.0 | 3.2 | 0.00 | 0.00 | 0.00 | 81 | 1011.6 |
| 20260504000130 | 17 | 104 | 0.0 | 1.6 | 0.00 | 0.00 | 0.00 | 83 | 1011.7 |
| 20260503235708 | 17 | 55 | 3.2 | 4.8 | 0.00 | 0.00 | 0.00 | 85 | 1011.8 |
| 20260503235258 | 17 | 94 | 0.0 | 1.6 | 0.00 | 0.00 | 0.00 | 85 | 1011.8 |
| 20260503234832 | 17 | 99 | 0.0 | 0.0 | 0.00 | 0.00 | 0.00 | 85 | 1011.9 |
| 20260503234423 | 17 | 97 | 0.0 | 0.0 | 0.00 | 0.00 | 0.00 | 85 | 1011.7 |
| 20260503234018 | 17 | 107 | 0.0 | 0.0 | 0.00 | 0.00 | 0.00 | 85 | 1011.8 |
| 20260503233520 | 17 | 97 | 0.0 | 1.6 | 0.00 | 0.00 | 0.00 | 85 | 1011.7 |
| 20260503233118 | 17 | 95 | 0.0 | 1.6 | 0.00 | 0.00 | 0.00 | 86 | 1011.8 |
| 20260503232713 | 18 | 86 | 0.0 | 1.6 | 0.00 | 0.00 | 0.00 | 86 | 1012.0 |
| 20260503232257 | 18 | 97 | 0.0 | 0.0 | 0.00 | 0.00 | 0.00 | 86 | 1011.9 |
| 20260503231853 | 17 | 103 | 0.0 | 0.0 | 0.00 | 0.00 | 0.00 | 86 | 1011.9 |
| 20260503231356 | 17 | 99 | 0.0 | 0.0 | 0.00 | 0.00 | 0.00 | 86 | 1011.9 |
| 20260503230858 | 18 | 98 | 0.0 | 0.0 | 0.00 | 0.00 | 0.00 | 86 | 1011.9 |
| 20260503230413 | 18 | 111 | 0.0 | 0.0 | 0.00 | 0.00 | 0.00 | 86 | 1012.1 |
| 20260503225943 | 18 | 84 | 0.0 | 0.0 | 0.00 | 0.00 | 0.00 | 86 | 1012.1 |
| 20260503225533 | 18 | 103 | 0.0 | 0.0 | 0.00 | 0.00 | 0.00 | 86 | 1012.0 |
| 20260503225038 | 18 | 105 | 0.0 | 0.0 | 0.00 | 0.00 | 0.00 | 86 | 1012.1 |
| 20260503224538 | 18 | 106 | 0.0 | 3.2 | 0.00 | 0.00 | 0.00 | 86 | 1012.1 |
| 20260503224123 | 18 | 114 | 0.0 | 4.8 | 0.00 | 0.00 | 0.00 | 86 | 1012.2 |
| 20260503223638 | 18 | 103 | 0.0 | 3.2 | 0.00 | 0.00 | 0.00 | 86 | 1012.1 |
| 20260503223233 | 18 | 140 | 0.0 | 4.8 | 0.00 | 0.00 | 0.00 | 86 | 1012.2 |
| 20260503222753 | 18 | 123 | 3.2 | 4.8 | 0.00 | 0.00 | 0.00 | 86 | 1012.0 |
| 20260503222325 | 18 | 136 | 1.6 | 4.8 | 0.00 | 0.00 | 0.00 | 86 | 1012.1 |
| 20260503221923 | 18 | 155 | 0.0 | 3.2 | 0.00 | 0.00 | 0.00 | 85 | 1012.2 |
| 20260503221438 | 18 | 113 | 0.0 | 1.6 | 0.00 | 0.00 | 0.00 | 86 | 1011.9 |
| 20260503221018 | 18 | 97 | 0.0 | 3.2 | 0.00 | 0.00 | 0.00 | 85 | 1012.1 |
| 20260503220523 | 18 | 136 | 1.6 | 4.8 | 0.00 | 0.00 | 0.00 | 86 | 1011.9 |
| 20260503220113 | 18 | 113 | 0.0 | 1.6 | 0.00 | 0.00 | 0.00 | 86 | 1012.1 |
| 20260503215638 | 18 | 108 | 0.0 | 0.0 | 0.00 | 0.00 | 0.00 | 86 | 1012.0 |
| 20260503215213 | 18 | 126 | 1.6 | 3.2 | 0.00 | 0.00 | 0.00 | 86 | 1012.0 |
| 20260503214728 | 18 | 147 | 3.2 | 4.8 | 0.00 | 0.00 | 0.00 | 85 | 1011.9 |
| 20260503214323 | 18 | 136 | 3.2 | 3.2 | 0.00 | 0.00 | 0.00 | 85 | 1012.1 |
| 20260503213909 | 18 | 71 | 0.0 | 3.2 | 0.00 | 0.00 | 0.00 | 84 | 1012.2 |
| 20260503213503 | 18 | 49 | 1.6 | 3.2 | 0.00 | 0.00 | 0.00 | 84 | 1012.0 |
| 20260503213049 | 18 | 73 | 0.0 | 3.2 | 0.00 | 0.00 | 0.00 | 84 | 1011.8 |
| 20260503212609 | 18 | 93 | 0.0 | 1.6 | 0.00 | 0.00 | 0.00 | 84 | 1012.0 |
| 20260503212114 | 18 | 86 | 0.0 | 4.8 | 0.00 | 0.00 | 0.00 | 85 | 1012.0 |
| 20260503211643 | 18 | 349 | 1.6 | 6.4 | 0.00 | 0.00 | 0.00 | 85 | 1011.8 |
| 20260503211233 | 18 | 44 | 4.8 | 8.0 | 0.00 | 0.00 | 0.00 | 86 | 1011.8 |
| 20260503210828 | 18 | 47 | 4.8 | 8.0 | 0.00 | 0.00 | 0.00 | 86 | 1011.8 |
| 20260503210413 | 18 | 24 | 3.2 | 6.4 | 0.00 | 0.00 | 0.00 | 86 | 1011.9 |
| 20260503205928 | 18 | 359 | 3.2 | 4.8 | 0.00 | 0.00 | 0.00 | 87 | 1011.7 |
| 20260503205436 | 18 | 104 | 0.0 | 1.6 | 0.00 | 0.00 | 0.00 | 87 | 1011.7 |
| 20260503204948 | 18 | 92 | 0.0 | 1.6 | 0.00 | 0.00 | 0.00 | 87 | 1011.9 |
| 20260503204529 | 18 | 83 | 0.0 | 1.6 | 0.00 | 0.00 | 0.00 | 87 | 1011.7 |
| 20260503204039 | 18 | 75 | 0.0 | 1.6 | 0.00 | 0.00 | 0.00 | 87 | 1011.5 |
| 20260503203543 | 18 | 64 | 0.0 | 3.2 | 0.00 | 0.00 | 0.00 | 87 | 1011.5 |
| 20260503203128 | 18 | 69 | 1.6 | 4.8 | 0.00 | 0.00 | 0.00 | 87 | 1011.6 |
| 20260503202653 | 18 | 81 | 0.0 | 4.8 | 0.00 | 0.00 | 0.00 | 87 | 1011.6 |
| 20260503202218 | 18 | 72 | 0.0 | 3.2 | 0.00 | 0.00 | 0.00 | 87 | 1011.4 |
| 20260503201743 | 18 | 24 | 3.2 | 6.4 | 0.00 | 0.00 | 0.00 | 87 | 1011.3 |
| 20260503201253 | 18 | 45 | 3.2 | 4.8 | 0.00 | 0.00 | 0.00 | 87 | 1011.1 |
| 20260503200843 | 18 | 69 | 0.0 | 4.8 | 0.00 | 0.00 | 0.00 | 87 | 1011.1 |
| 20260503200423 | 18 | 32 | 0.0 | 4.8 | 0.00 | 0.00 | 0.00 | 87 | 1011.4 |
| 20260503195953 | 18 | 46 | 0.0 | 1.6 | 0.00 | 0.00 | 0.00 | 87 | 1011.3 |
| 20260503195513 | 18 | 61 | 1.6 | 3.2 | 0.00 | 0.00 | 0.00 | 87 | 1011.2 |
| 20260503195058 | 18 | 81 | 0.0 | 3.2 | 0.00 | 0.00 | 0.00 | 87 | 1011.0 |
| 20260503194633 | 18 | 82 | 1.6 | 4.8 | 0.00 | 0.00 | 0.00 | 87 | 1011.2 |
| 20260503194223 | 18 | 351 | 4.8 | 6.4 | 0.00 | 0.00 | 0.00 | 86 | 1011.1 |
| 20260503193743 | 18 | 56 | 1.6 | 4.8 | 0.00 | 0.00 | 0.00 | 86 | 1010.9 |
| 20260503193333 | 18 | 74 | 0.0 | 3.2 | 0.00 | 0.00 | 0.00 | 86 | 1010.9 |
| 20260503192928 | 18 | 50 | 0.0 | 1.6 | 0.00 | 0.00 | 0.00 | 86 | 1011.0 |
| 20260503192453 | 18 | 73 | 1.6 | 3.2 | 0.00 | 0.00 | 0.00 | 86 | 1010.9 |
| 20260503192053 | 18 | 77 | 0.0 | 1.6 | 0.00 | 0.00 | 0.00 | 85 | 1010.7 |
| 20260503191618 | 18 | 66 | 1.6 | 4.8 | 0.00 | 0.00 | 0.00 | 85 | 1010.6 |
| 20260503191153 | 18 | 79 | 1.6 | 3.2 | 0.00 | 0.00 | 0.00 | 85 | 1010.8 |
| 20260503190658 | 18 | 103 | 0.0 | 6.4 | 0.00 | 0.00 | 0.00 | 85 | 1010.6 |
| 20260503190248 | 18 | 74 | 3.2 | 6.4 | 0.00 | 0.00 | 0.00 | 85 | 1010.7 |
| 20260503185758 | 18 | 106 | 0.0 | 4.8 | 0.00 | 0.00 | 0.00 | 85 | 1010.8 |
| 20260503185304 | 19 | 54 | 4.8 | 8.0 | 0.00 | 0.00 | 0.00 | 84 | 1010.7 |
| 20260503184853 | 19 | 65 | 3.2 | 4.8 | 0.00 | 0.00 | 0.00 | 84 | 1010.7 |
| 20260503184409 | 20 | 49 | 3.2 | 4.8 | 0.00 | 0.00 | 0.00 | 83 | 1010.4 |
| 20260503183923 | 20 | 78 | 0.0 | 3.2 | 0.00 | 0.00 | 0.00 | 82 | 1010.6 |
| 20260503183448 | 20 | 93 | 1.6 | 4.8 | 0.00 | 0.00 | 0.00 | 81 | 1010.4 |
| 20260503183003 | 20 | 46 | 3.2 | 6.4 | 0.00 | 0.00 | 0.00 | 80 | 1010.3 |
| 20260503182510 | 20 | 52 | 1.6 | 3.2 | 0.00 | 0.00 | 0.00 | 78 | 1010.2 |
| 20260503182043 | 21 | 95 | 0.0 | 6.4 | 0.00 | 0.00 | 0.00 | 77 | 1010.1 |
| 20260503181558 | 21 | 107 | 0.0 | 3.2 | 0.00 | 0.00 | 0.00 | 77 | 1010.3 |
| 20260503181133 | 20 | 112 | 0.0 | 6.4 | 0.00 | 0.00 | 0.00 | 77 | 1010.2 |
| 20260503180708 | 20 | 113 | 3.2 | 4.8 | 0.00 | 0.00 | 0.00 | 78 | 1010.2 |
| 20260503180213 | 20 | 108 | 1.6 | 9.7 | 0.00 | 0.00 | 0.00 | 79 | 1010.1 |
| 20260503175733 | 20 | 190 | 8.0 | 14.5 | 0.00 | 0.00 | 0.00 | 79 | 1010.2 |
| 20260503175318 | 20 | 209 | 4.8 | 14.5 | 0.00 | 0.00 | 0.00 | 79 | 1010.3 |
| 20260503174849 | 20 | 215 | 14.5 | 17.7 | 0.00 | 0.00 | 0.00 | 79 | 1010.4 |
| 20260503174442 | 20 | 220 | 9.7 | 17.7 | 0.00 | 0.00 | 0.00 | 78 | 1010.4 |
| 20260503174043 | 20 | 221 | 4.8 | 14.5 | 0.00 | 0.00 | 0.00 | 77 | 1010.3 |
| 20260503173638 | 20 | 166 | 6.4 | 9.7 | 0.00 | 0.00 | 0.00 | 76 | 1010.4 |
| 20260503173238 | 20 | 179 | 6.4 | 9.7 | 0.00 | 0.00 | 0.00 | 76 | 1010.2 |
| 20260503172753 | 20 | 207 | 12.9 | 22.5 | 0.00 | 0.00 | 0.00 | 76 | 1010.3 |
| 20260503172338 | 20 | 218 | 11.3 | 19.3 | 0.00 | 0.00 | 0.00 | 75 | 1010.6 |
| 20260503171908 | 20 | 172 | 6.4 | 14.5 | 0.00 | 0.00 | 0.00 | 75 | 1010.4 |
| 20260503171428 | 20 | 267 | 9.7 | 12.9 | 0.00 | 0.00 | 0.00 | 75 | 1010.4 |
| 20260503170950 | 20 | 140 | 4.8 | 19.3 | 0.00 | 0.00 | 0.00 | 75 | 1010.6 |
| 20260503170528 | 21 | 182 | 8.0 | 12.9 | 0.00 | 0.00 | 0.00 | 73 | 1010.6 |
| 20260503160143 | 20 | 165 | 4.8 | 14.5 | 0.00 | 0.00 | 0.00 | 81 | 1010.9 |
| 20260503150713 | 18 | 114 | 11.3 | 27.4 | 0.00 | 0.00 | 0.00 | 85 | 1011.5 |
| 20260503150253 | 18 | 184 | 9.7 | 27.4 | 0.00 | 0.00 | 0.00 | 85 | 1011.7 |
| 20260503131353 | 20 | 137 | 22.5 | 27.4 | 0.00 | 0.00 | 0.00 | 81 | 1012.5 |
| 20260503130918 | 20 | 220 | 9.7 | 20.9 | 0.00 | 0.00 | 0.00 | 82 | 1012.8 |
| 20260503130428 | 20 | 167 | 6.4 | 17.7 | 0.00 | 0.00 | 0.00 | 81 | 1012.9 |
| 20260503110618 | 20 | 162 | 11.3 | 16.1 | 0.00 | 0.00 | 0.00 | 83 | 1013.8 |
| 20260503110153 | 20 | 187 | 9.7 | 22.5 | 0.00 | 0.00 | 0.00 | 83 | 1013.8 |
| 20260503090408 | 19 | 156 | 14.5 | 20.9 | 0.00 | 0.00 | 0.00 | 80 | 1013.8 |
| 20260503081513 | 18 | 108 | 3.2 | 17.7 | 0.00 | 0.00 | 0.00 | 82 | 1013.7 |
| 20260503081038 | 18 | 138 | 4.8 | 9.7 | 0.00 | 0.00 | 0.00 | 82 | 1013.8 |
| 20260503080638 | 18 | 154 | 9.7 | 12.9 | 0.00 | 0.00 | 0.00 | 81 | 1013.7 |
| 20260503080148 | 19 | 130 | 6.4 | 9.7 | 0.00 | 0.00 | 0.00 | 81 | 1013.7 |
| 20260503072543 | 18 | 135 | 1.6 | 4.8 | 0.00 | 0.00 | 0.00 | 82 | 1013.4 |
| 20260503072053 | 18 | 106 | 1.6 | 6.4 | 0.00 | 0.00 | 0.00 | 82 | 1013.7 |
| 20260503071603 | 18 | 97 | 3.2 | 6.4 | 0.00 | 0.00 | 0.00 | 82 | 1013.6 |
| 20260503071108 | 18 | 123 | 0.0 | 4.8 | 0.00 | 0.00 | 0.00 | 82 | 1013.7 |
| 20260503070633 | 18 | 107 | 0.0 | 3.2 | 0.00 | 0.00 | 0.00 | 82 | 1013.4 |
| 20260503070220 | 18 | 124 | 1.6 | 4.8 | 0.00 | 0.00 | 0.00 | 82 | 1013.3 |
| 20260503054748 | 18 | 99 | 0.0 | 0.0 | 0.00 | 0.00 | 0.00 | 84 | 1012.9 |
| 20260503054318 | 18 | 86 | 0.0 | 0.0 | 0.00 | 0.00 | 0.00 | 84 | 1012.6 |
| 20260503053833 | 18 | 100 | 0.0 | 0.0 | 0.00 | 0.00 | 0.00 | 84 | 1012.8 |
| 20260503053423 | 18 | 113 | 0.0 | 1.6 | 0.00 | 0.00 | 0.00 | 84 | 1012.8 |
| 20260503052938 | 18 | 128 | 0.0 | 1.6 | 0.00 | 0.00 | 0.00 | 84 | 1012.8 |
| 20260503052529 | 18 | 115 | 0.0 | 1.6 | 0.00 | 0.00 | 0.00 | 84 | 1012.8 |
| 20260503052041 | 18 | 117 | 0.0 | 1.6 | 0.00 | 0.00 | 0.00 | 84 | 1012.6 |
| 20260503051618 | 18 | 117 | 0.0 | 0.0 | 0.00 | 0.00 | 0.00 | 84 | 1012.6 |
| 20260503050733 | 18 | 108 | 0.0 | 3.2 | 0.00 | 0.00 | 0.00 | 85 | 1012.9 |
| 20260503050303 | 18 | 150 | 1.6 | 4.8 | 0.00 | 0.00 | 0.00 | 85 | 1012.8 |
| 20260503045831 | 18 | 107 | 0.0 | 4.8 | 0.00 | 0.00 | 0.00 | 85 | 1012.8 |
| 20260503045343 | 18 | 174 | 3.2 | 4.8 | 0.00 | 0.00 | 0.00 | 85 | 1012.6 |
| 20260503044938 | 18 | 121 | 1.6 | 3.2 | 0.00 | 0.00 | 0.00 | 84 | 1012.6 |
| 20260503044503 | 17 | 174 | 3.2 | 4.8 | 0.00 | 0.00 | 0.00 | 84 | 1012.6 |
| 20260503044043 | 17 | 104 | 0.0 | 3.2 | 0.00 | 0.00 | 0.00 | 85 | 1012.5 |
| 20260503043628 | 17 | 99 | 0.0 | 0.0 | 0.00 | 0.00 | 0.00 | 85 | 1012.6 |
| 20260503043148 | 18 | 106 | 0.0 | 0.0 | 0.00 | 0.00 | 0.00 | 85 | 1012.5 |
| 20260503042653 | 18 | 116 | 0.0 | 0.0 | 0.00 | 0.00 | 0.00 | 84 | 1012.6 |
| 20260503042153 | 18 | 100 | 0.0 | 0.0 | 0.00 | 0.00 | 0.00 | 84 | 1012.6 |
| 20260503041658 | 18 | 114 | 0.0 | 0.0 | 0.00 | 0.00 | 0.00 | 84 | 1012.9 |
| 20260503041258 | 18 | 109 | 0.0 | 0.0 | 0.00 | 0.00 | 0.00 | 84 | 1012.6 |
| 20260503040808 | 18 | 97 | 0.0 | 0.0 | 0.00 | 0.00 | 0.00 | 83 | 1012.8 |
| 20260503040343 | 18 | 98 | 0.0 | 0.0 | 0.00 | 0.00 | 0.00 | 83 | 1012.9 |
| 20260503035853 | 18 | 68 | 1.6 | 1.6 | 0.00 | 0.00 | 0.00 | 83 | 1012.9 |
| 20260503035414 | 18 | 70 | 1.6 | 3.2 | 0.00 | 0.00 | 0.00 | 84 | 1013.0 |
| 20260503034953 | 18 | 89 | 0.0 | 0.0 | 0.00 | 0.00 | 0.00 | 84 | 1013.1 |
| 20260503034523 | 18 | 97 | 0.0 | 0.0 | 0.00 | 0.00 | 0.00 | 84 | 1013.1 |
| 20260503034118 | 18 | 95 | 0.0 | 1.6 | 0.00 | 0.00 | 0.00 | 84 | 1013.0 |
| 20260503033652 | 18 | 16 | 3.2 | 4.8 | 0.00 | 0.00 | 0.00 | 84 | 1012.9 |
| 20260503033221 | 18 | 84 | 1.6 | 3.2 | 0.00 | 0.00 | 0.00 | 84 | 1013.1 |
| 20260503032728 | 18 | 27 | 0.0 | 3.2 | 0.00 | 0.00 | 0.00 | 85 | 1013.2 |
| 20260503032305 | 18 | 99 | 0.0 | 0.0 | 0.00 | 0.00 | 0.00 | 85 | 1013.3 |
| 20260503031823 | 18 | 90 | 1.6 | 3.2 | 0.00 | 0.00 | 0.00 | 85 | 1013.4 |
| 20260503031403 | 18 | 96 | 0.0 | 0.0 | 0.00 | 0.00 | 0.00 | 85 | 1013.3 |
| 20260503030910 | 18 | 61 | 1.6 | 3.2 | 0.00 | 0.00 | 0.00 | 85 | 1013.2 |
| 20260503030423 | 18 | 92 | 0.0 | 3.2 | 0.00 | 0.00 | 0.00 | 85 | 1013.2 |
| 20260503025953 | 18 | 71 | 0.0 | 0.0 | 0.00 | 0.00 | 0.00 | 85 | 1013.3 |
| 20260503025518 | 18 | 93 | 0.0 | 1.6 | 0.00 | 0.00 | 0.00 | 85 | 1013.3 |
| 20260503025048 | 18 | 27 | 3.2 | 4.8 | 0.00 | 0.00 | 0.00 | 86 | 1013.2 |
| 20260503024633 | 18 | 90 | 0.0 | 0.0 | 0.00 | 0.00 | 0.00 | 86 | 1013.2 |